Home > Weather > Illnau-Effretikon > Past weeks

Flag for Switzerland Past Weather in Illnau-Effretikon, Zurich, Switzerland — Yesterday and Last 2 Weeks

Now
78 °F

Warm.


Feels Like: 80 °F
Forecast: 56 / 69 °F
Wind: 3 mph from Southwest

Location: Zuerich-Fluntern

Current Time: Jul 1, 2016 at 7:07:55 PM

Latest Report: Jul 1, 2016 at 6:00 PM


Visibility: N/A

Pressure: 29.94 "Hg (28.23 "Hg at 514m altitude)

Humidity: 54%

Dew Point: 60 °F

Location of Illnau-EffretikonLocation

Past Weather in Illnau-Effretikon — Graph

°F

Illnau-Effretikon Temperature Yesterday

Maximum temperature yesterday: 72 °F (at 6:00 PM)
Minimum temperature yesterday: 60 °F (at 9:00 AM)
Average temperature yesterday: 65 °F

High & Low Weather Summary for the Past Weeks

 TemperatureHumidityPressure
High90 °F (Jun 23, 6:00 PM)97% (Jun 17, 12:00 AM)30.28 "Hg (Jun 17, 12:00 AM)
Low48 °F (Jun 17, 6:00 AM)38% (Jun 24, 3:00 PM)29.65 "Hg (Jun 16, 6:00 PM)
Average64 °F77%30.07 "Hg
* Reported Jun 16 5:00 PM — Jul 1 5:00 PM, Illnau-Effretikon, Weather by CustomWeather, © 2016

Note: Actual official high and low records may vary slightly from our data, if they occured in-between our weather recording intervals... More about our weather records

Advertising

Illnau-Effretikon Weather History for the Previous 24 Hours

Scroll right to see more
 ConditionsComfort  
Time TempWeatherWind HumidityBarometerVisibility
5:00 PM
Fri, Jul 1
77 °FWarm.3 mph52%29.96 "HgN/A
4:00 PM75 °FMild.1 mph59%29.98 "HgN/A
3:00 PM78 °FWarm.5 mph56%29.98 "HgN/A
2:00 PM76 °FScattered clouds.5 mph59%30.00 "HgN/A
1:00 PM73 °FMild.3 mph61%30.03 "HgN/A
12:00 PM70 °FMild.2 mph68%30.05 "HgN/A
11:00 AM68 °FMild.1 mph79%30.06 "HgN/A
10:00 AM64 °FMild.1 mph87%30.08 "HgN/A
9:00 AM63 °FMild.3 mph93%30.08 "HgN/A
8:00 AM63 °FScattered clouds.1 mph94%30.07 "HgN/A
7:00 AM61 °FCool.1 mph95%30.07 "HgN/A
6:00 AM60 °FCool.1 mph96%30.07 "HgN/A
5:00 AM61 °FCool.3 mph95%30.07 "HgN/A
4:00 AM61 °FCool.1 mph96%30.07 "HgN/A
3:00 AM62 °FCool.1 mph96%30.07 "HgN/A
2:00 AM62 °FMild.2 mph96%30.07 "HgN/A
1:00 AM63 °FMild.1 mph96%30.07 "HgN/A
12:00 AM63 °FMild.2 mph96%30.06 "HgN/A
11:00 PM
Thu, Jun 30
64 °FMild.2 mph96%30.07 "HgN/A
10:00 PM64 °FMild.3 mph95%30.05 "HgN/A
9:00 PM64 °FMild.3 mph94%30.03 "HgN/A
8:00 PM65 °FOvercast.2 mph94%30.01 "HgN/A
7:00 PM71 °FMild.3 mph66%29.97 "HgN/A
Weather by CustomWeather, © 2016

See weather overviewHow to use our weather pages